{"data":{"norad_id":44341,"epoch":"2026-09-19T19:44:52.310688Z","epoch_age_seconds":116788,"freshness":"FRESH","line1":"1 44341U 19036C   26262.82282767  .00000864  00000+0  13977-3 0  9992","line2":"2 44341  23.9960 100.7251 0010761 326.1752  33.8053 14.57350767385197","mean_motion":14.57350767,"eccentricity":0.0010761,"inclination_deg":23.996,"raan_deg":100.7251,"arg_perigee_deg":326.1752,"mean_anomaly_deg":33.8053,"bstar":0.00013977,"rev_number":38519,"period_min":98.809430962477,"perigee_km":694.12242020815,"apogee_km":709.35973380548,"semimajor_km":7079.8780770068,"source":"CELESTRAK","updated_at":"2026-09-20T09:00:14.461380Z"}}